Location: Bremen
(53.0793°N, 8.8017°E)
Time: 13:27:30
(UTC+01:00)

ARIANE 6 FM1 Upper Stage - Pass Details

Date: 13 December 2025
Orbit: 522 x 610 km, 62.0° (Epoch: 13 January)

Event Time Altitude Azimuth Distance (km) Brightness Sun altitude
Rises 07:34:08 0° 209° (SSW) 2,683 6.1 -7.9°
Reaches altitude 10° 07:36:24 10° 202° (SSW) 1,784 5.3 -7.6°
Maximum altitude 07:40:12 43° 131° (SE) 751 4.0 -7.1°
Drops below altitude 10° 07:43:58 10° 59° (ENE) 1,770 5.6 -6.6°
Sets 07:46:13 0° 53° (NE) 2,660 6.4 -6.3°
